Location: Aalen
(48.8330°N, 10.1000°E)
Time: 20:21:31
(UTC+02:00)

UNISAT 6 - Pass Details

Date: 09 April 2023
Orbit: 599 x 680 km, 97.7° (Epoch: 04 June)

Event Time Altitude Azimuth Distance (km) Brightness Sun altitude
Rises 20:32:00 0° 0° (N) 3,056 ? -5.6°
Reaches altitude 10° 20:34:55 10° 341° (NNW) 2,133 ? -6.1°
Maximum altitude 20:37:55 17° 301° (WNW) 1,686 ? -6.5°
Drops below altitude 10° 20:40:53 10° 261° (W) 2,108 ? -7.0°
Sets 20:43:45 0° 241° (WSW) 3,005 ? -7.4°
